| time (UTC) | temp C | wind direction | speed KPH | gust KPH | rain 1hr cm | rain 24hr cm | rain mn cm | humidity % | barometer mb |
| 20260906204504 | 32 | 103 | 12.9 | 0.0 | 0.00 | 0.00 | 0.00 | 35 | 1001.3 |
| 20260906203036 | 32 | 181 | 14.5 | 0.0 | 0.00 | 0.00 | 0.00 | 35 | 1001.5 |
| 20260906201536 | 32 | 118 | 14.5 | 0.0 | 0.00 | 0.00 | 0.00 | 38 | 1001.5 |
| 20260906200050 | 31 | 150 | 14.5 | 0.0 | 0.00 | 0.00 | 0.00 | 39 | 1001.9 |
| 20260906194615 | 31 | 103 | 11.3 | 0.0 | 0.00 | 0.00 | 0.00 | 38 | 1002.0 |
| 20260906193021 | 31 | 165 | 8.0 | 0.0 | 0.00 | 0.00 | 0.00 | 37 | 1002.2 |
| 20260906191542 | 31 | 189 | 12.9 | 0.0 | 0.00 | 0.00 | 0.00 | 39 | 1002.6 |
| 20260906190046 | 31 | 182 | 12.9 | 0.0 | 0.00 | 0.00 | 0.00 | 38 | 1003.0 |
| 20260906184550 | 30 | 106 | 12.9 | 0.0 | 0.00 | 0.00 | 0.00 | 40 | 1003.0 |
| 20260906183018 | 30 | 134 | 12.9 | 0.0 | 0.00 | 0.00 | 0.00 | 41 | 1003.3 |
| 20260906181542 | 29 | 151 | 14.5 | 0.0 | 0.00 | 0.00 | 0.00 | 45 | 1003.8 |
| 20260906180019 | 29 | 178 | 12.9 | 0.0 | 0.00 | 0.00 | 0.00 | 46 | 1003.8 |
| 20260906174554 | 29 | 162 | 11.3 | 0.0 | 0.00 | 0.00 | 0.00 | 47 | 1004.4 |
| 20260906173053 | 28 | 144 | 9.7 | 0.0 | 0.00 | 0.00 | 0.00 | 48 | 1004.6 |
| 20260906171604 | 28 | 154 | 11.3 | 0.0 | 0.00 | 0.00 | 0.00 | 50 | 1004.7 |
| 20260906170057 | 28 | 168 | 9.7 | 0.0 | 0.00 | 0.00 | 0.00 | 53 | 1005.0 |
| 20260906164553 | 27 | 121 | 9.7 | 0.0 | 0.00 | 0.00 | 0.00 | 51 | 1005.3 |
| 20260906163008 | 27 | 55 | 9.7 | 0.0 | 0.00 | 0.00 | 0.00 | 54 | 1005.2 |
| 20260906161515 | 26 | 131 | 9.7 | 0.0 | 0.00 | 0.00 | 0.00 | 57 | 1005.4 |
| 20260906160048 | 26 | 121 | 8.0 | 0.0 | 0.00 | 0.00 | 0.00 | 59 | 1005.3 |
| 20260906154543 | 25 | 94 | 9.7 | 0.0 | 0.00 | 0.00 | 0.00 | 65 | 1005.5 |
| 20260906153046 | 24 | 79 | 12.9 | 0.0 | 0.00 | 0.00 | 0.00 | 69 | 1005.5 |
| 20260906151509 | 23 | 117 | 9.7 | 0.0 | 0.00 | 0.00 | 0.00 | 73 | 1005.9 |
| 20260906150053 | 22 | 130 | 11.3 | 0.0 | 0.00 | 0.00 | 0.00 | 76 | 1005.7 |
| 20260906144609 | 22 | 110 | 11.3 | 0.0 | 0.00 | 0.00 | 0.00 | 79 | 1005.8 |
| 20260906143003 | 21 | 104 | 11.3 | 0.0 | 0.00 | 0.00 | 0.00 | 84 | 1005.8 |
| 20260906141536 | 20 | 117 | 8.0 | 0.0 | 0.00 | 0.00 | 0.00 | 88 | 1005.9 |
| 20260906140040 | 20 | 111 | 9.7 | 0.0 | 0.00 | 0.00 | 0.00 | 90 | 1005.5 |
| 20260906134544 | 19 | 89 | 4.8 | 0.0 | 0.00 | 0.00 | 0.00 | 90 | 1005.3 |
| 20260906133055 | 19 | 131 | 6.4 | 0.0 | 0.00 | 0.00 | 0.00 | 90 | 1005.2 |
| 20260906131547 | 19 | 127 | 9.7 | 0.0 | 0.00 | 0.00 | 0.00 | 90 | 1005.4 |
| 20260906130055 | 18 | 107 | 8.0 | 0.0 | 0.00 | 0.00 | 0.00 | 90 | 1004.9 |
| 20260906124556 | 18 | 66 | 9.7 | 0.0 | 0.00 | 0.00 | 0.00 | 89 | 1004.9 |
| 20260906123005 | 19 | 93 | 9.7 | 0.0 | 0.00 | 0.00 | 0.00 | 89 | 1004.9 |
| 20260906121535 | 19 | 85 | 8.0 | 0.0 | 0.00 | 0.00 | 0.00 | 89 | 1005.0 |
| 20260906120101 | 18 | 102 | 6.4 | 0.0 | 0.00 | 0.00 | 0.00 | 89 | 1004.5 |
| 20260906114535 | 18 | 42 | 11.3 | 0.0 | 0.00 | 0.00 | 0.00 | 88 | 1004.7 |
| 20260906113027 | 18 | 114 | 12.9 | 0.0 | 0.00 | 0.00 | 0.00 | 87 | 1004.6 |
| 20260906111554 | 19 | 58 | 9.7 | 0.0 | 0.00 | 0.00 | 0.00 | 86 | 1004.8 |
| 20260906110058 | 19 | 76 | 11.3 | 0.0 | 0.00 | 0.00 | 0.00 | 85 | 1004.0 |
| 20260906104514 | 19 | 56 | 8.0 | 0.0 | 0.00 | 0.00 | 0.00 | 83 | 1004.0 |
| 20260906103006 | 20 | 55 | 9.7 | 0.0 | 0.00 | 0.00 | 0.00 | 82 | 1003.8 |
| 20260906101518 | 20 | 48 | 9.7 | 0.0 | 0.00 | 0.00 | 0.00 | 79 | 1003.4 |
| 20260906100047 | 21 | 20 | 8.0 | 0.0 | 0.00 | 0.00 | 0.00 | 76 | 1003.3 |
| 20260906094608 | 21 | 28 | 8.0 | 0.0 | 0.00 | 0.00 | 0.00 | 75 | 1002.7 |
| 20260906093014 | 22 | 350 | 6.4 | 0.0 | 0.00 | 0.00 | 0.00 | 70 | 1002.6 |
| 20260906091505 | 22 | 333 | 4.8 | 0.0 | 0.00 | 0.00 | 0.00 | 67 | 1002.5 |
| 20260906090043 | 22 | 325 | 4.8 | 0.0 | 0.00 | 0.00 | 0.00 | 67 | 1002.5 |
| 20260906084541 | 22 | 313 | 8.0 | 0.0 | 0.00 | 0.00 | 0.00 | 67 | 1002.7 |
| 20260906083039 | 22 | 207 | 4.8 | 0.0 | 0.00 | 0.00 | 0.00 | 67 | 1002.0 |
| 20260906081517 | 22 | 205 | 4.8 | 0.0 | 0.00 | 0.00 | 0.00 | 65 | 1001.7 |
| 20260906080009 | 22 | 213 | 3.2 | 0.0 | 0.00 | 0.00 | 0.00 | 66 | 1002.0 |
| 20260906074524 | 22 | 128 | 1.6 | 0.0 | 0.00 | 0.00 | 0.00 | 67 | 1002.3 |
| 20260906073053 | 22 | 124 | 3.2 | 0.0 | 0.00 | 0.00 | 0.00 | 67 | 1002.2 |
| 20260906071557 | 22 | 150 | 3.2 | 0.0 | 0.00 | 0.00 | 0.00 | 67 | 1002.1 |
| 20260906070030 | 22 | 205 | 3.2 | 0.0 | 0.00 | 0.00 | 0.00 | 67 | 1002.5 |
| 20260906064553 | 22 | 175 | 3.2 | 0.0 | 0.00 | 0.00 | 0.00 | 66 | 1002.6 |
| 20260906063057 | 22 | 121 | 3.2 | 0.0 | 0.00 | 0.00 | 0.00 | 66 | 1002.7 |
| 20260906061506 | 22 | 99 | 3.2 | 0.0 | 0.00 | 0.00 | 0.00 | 66 | 1002.3 |
| 20260906060010 | 22 | 127 | 4.8 | 0.0 | 0.00 | 0.00 | 0.00 | 65 | 1002.0 |
| 20260906054525 | 23 | 133 | 3.2 | 0.0 | 0.00 | 0.00 | 0.00 | 65 | 1001.7 |
| 20260906053031 | 23 | 140 | 3.2 | 0.0 | 0.00 | 0.00 | 0.00 | 64 | 1001.6 |
| 20260906051553 | 23 | 131 | 3.2 | 0.0 | 0.00 | 0.00 | 0.00 | 62 | 1001.6 |
| 20260906050115 | 23 | 141 | 3.2 | 0.0 | 0.00 | 0.00 | 0.00 | 62 | 1001.5 |
| 20260906044533 | 24 | 185 | 3.2 | 0.0 | 0.00 | 0.00 | 0.00 | 60 | 1001.6 |
| 20260906043056 | 24 | 152 | 3.2 | 0.0 | 0.00 | 0.00 | 0.00 | 59 | 1001.6 |
| 20260906041549 | 25 | 126 | 3.2 | 0.0 | 0.00 | 0.00 | 0.00 | 58 | 1001.6 |
| 20260906040015 | 25 | 145 | 3.2 | 0.0 | 0.00 | 0.00 | 0.00 | 57 | 1002.0 |
| 20260906034519 | 25 | 138 | 3.2 | 0.0 | 0.00 | 0.00 | 0.00 | 56 | 1002.1 |
| 20260906033101 | 26 | 128 | 3.2 | 0.0 | 0.00 | 0.00 | 0.00 | 55 | 1001.8 |
| 20260906033002 | 26 | 147 | 3.2 | 0.0 | 0.00 | 0.00 | 0.00 | 54 | 1001.8 |
| 20260906031509 | 26 | 161 | 4.8 | 0.0 | 0.00 | 0.00 | 0.00 | 52 | 1001.8 |
| 20260906030011 | 27 | 121 | 4.8 | 0.0 | 0.00 | 0.00 | 0.00 | 51 | 1002.2 |
| 20260906024504 | 27 | 109 | 4.8 | 0.0 | 0.00 | 0.00 | 0.00 | 50 | 1001.7 |
| 20260906023029 | 27 | 111 | 4.8 | 0.0 | 0.00 | 0.00 | 0.00 | 48 | 1001.4 |
| 20260906021531 | 28 | 118 | 4.8 | 0.0 | 0.00 | 0.00 | 0.00 | 47 | 1001.1 |
| 20260906020048 | 28 | 107 | 3.2 | 0.0 | 0.00 | 0.00 | 0.00 | 45 | 1001.8 |
| 20260906014544 | 29 | 162 | 1.6 | 0.0 | 0.00 | 0.00 | 0.00 | 43 | 1001.7 |
| 20260906013042 | 30 | 165 | 1.6 | 0.0 | 0.00 | 0.00 | 0.00 | 42 | 1001.5 |
| 20260906011512 | 30 | 102 | 1.6 | 0.0 | 0.00 | 0.00 | 0.00 | 40 | 1001.3 |
| 20260906010016 | 31 | 142 | 3.2 | 0.0 | 0.00 | 0.00 | 0.00 | 39 | 1001.6 |
| 20260906004540 | 31 | 205 | 3.2 | 0.0 | 0.00 | 0.00 | 0.00 | 37 | 1001.0 |
| 20260906003046 | 31 | 117 | 4.8 | 0.0 | 0.00 | 0.00 | 0.00 | 36 | 1000.8 |
| 20260906001503 | 31 | 198 | 6.4 | 0.0 | 0.00 | 0.00 | 0.00 | 35 | 1000.5 |
| 20260906000006 | 32 | 175 | 6.4 | 0.0 | 0.00 | 0.00 | 0.00 | 35 | 1000.5 |
| 20260905234525 | 32 | 135 | 6.4 | 0.0 | 0.00 | 0.00 | 0.00 | 31 | 1000.6 |
| 20260905233050 | 33 | 179 | 8.0 | 0.0 | 0.00 | 0.00 | 0.00 | 29 | 1000.3 |
| 20260905231553 | 35 | 181 | 9.7 | 0.0 | 0.00 | 0.00 | 0.00 | 26 | 1000.1 |
| 20260905230055 | 35 | 181 | 8.0 | 0.0 | 0.00 | 0.00 | 0.00 | 25 | 999.7 |
| 20260905224558 | 35 | 151 | 11.3 | 0.0 | 0.00 | 0.00 | 0.00 | 26 | 999.5 |
| 20260905223052 | 35 | 151 | 9.7 | 0.0 | 0.00 | 0.00 | 0.00 | 28 | 999.4 |
| 20260905221550 | 35 | 142 | 9.7 | 0.0 | 0.00 | 0.00 | 0.00 | 27 | 999.5 |
| 20260905220020 | 35 | 120 | 8.0 | 0.0 | 0.00 | 0.00 | 0.00 | 28 | 999.6 |
| 20260905214523 | 35 | 203 | 9.7 | 0.0 | 0.00 | 0.00 | 0.00 | 27 | 999.6 |
| 20260905213021 | 35 | 148 | 9.7 | 0.0 | 0.00 | 0.00 | 0.00 | 27 | 999.7 |
| 20260905211546 | 35 | 127 | 11.3 | 0.0 | 0.00 | 0.00 | 0.00 | 28 | 1000.0 |
| 20260905210056 | 35 | 102 | 9.7 | 0.0 | 0.00 | 0.00 | 0.00 | 28 | 1000.3 |